Alpine, TX

3:58 PM CST on February 23, 2017 (GMT -0600)
Alpine

Weather History for KE38 - October, 2013

Change the Weather History Date:

Saturday, October 5, 2013

  Actual Average (KMRF) Record (KMRF)
Temperature  
Mean Temperature 58 °F -  
Max Temperature 69 °F 75 °F 87 °F (2000)
Min Temperature 49 °F 47 °F 42 °F (2010)
Degree Days  
Heating Degree Days 6    
Growing Degree Days 8 (Base 50)    
Moisture  
Dew Point 32 °F    
Average Humidity 37    
Maximum Humidity 67    
Minimum Humidity 24    
Precipitation  
Precipitation 0.00 in - - ()
Sea Level Pressure  
Sea Level Pressure 30.20 in    
Wind  
Wind Speed 7 mph (NE)    
Max Wind Speed 16 mph    
Max Gust Speed 23 mph    
Visibility 10 miles    
Events      
Averages and records for this station are not official NWS values.
T = Trace of Precipitation, MM = Missing Value Source: NWS Daily Summary

Daily Weather History Graph

Daily Weather History Graph

Search for Another Location

Airport or City:

Trip Planner

Search our weather history database for the weather conditions in past years. The results will help you decide how hot, cold, wet, or windy it might be!

Date:

Astronomy

Oct. 05, 2013 Rise Set
Actual Time 7:50 AM CDT 7:34 PM CDT
Civil Twilight 7:26 AM CDT 7:58 PM CDT
Nautical Twilight 6:58 AM CDT 8:26 PM CDT
Astronomical Twilight 6:31 AM CDT 8:54 PM CDT
Moon 8:27 AM CDT (10/5) 8:02 PM CDT (10/5)
Length of Visible Light 12h 32m
Length of Day
11h 44m
New Moon, 1% of the Moon is Illuminated
Oct 5
New Moon
Oct 11
First Quarter
Oct 18
Full
Oct 26
Last Quarter
Nov 3
New

Hourly Weather History & Observations

Time (CDT) Temp. Dew Point Humidity Pressure Visibility Wind Dir Wind Speed Gust Speed Precip Events Conditions
12:15 AM 60.3 °F 32.9 °F 36% 30.08 in 10.0 mi West 8.1 mph - N/A   Clear
12:35 AM 60.3 °F 32.9 °F 36% 30.09 in 10.0 mi WSW 5.8 mph - N/A   Clear
12:55 AM 57.0 °F 33.1 °F 40% 30.08 in 10.0 mi WSW 4.6 mph - N/A   Clear
1:15 AM 57.7 °F 33.3 °F 40% 30.08 in 10.0 mi SSW 4.6 mph - N/A   Clear
1:35 AM 57.9 °F 35.1 °F 42% 30.08 in 10.0 mi West 3.5 mph - N/A   Clear
1:55 AM 56.3 °F 36.5 °F 47% 30.08 in 10.0 mi Calm Calm - N/A   Clear
2:15 AM 57.4 °F 38.7 °F 50% 30.08 in 10.0 mi South 3.5 mph - N/A   Clear
2:35 AM 56.5 °F 38.8 °F 52% 30.09 in 10.0 mi South 3.5 mph - N/A   Clear
2:55 AM 57.6 °F 39.6 °F 51% 30.09 in 10.0 mi SSW 3.5 mph - N/A   Clear
3:15 AM 56.3 °F 38.8 °F 52% 30.10 in 10.0 mi SW 6.9 mph - N/A   Clear
3:35 AM 57.4 °F 40.5 °F 53% 30.10 in 10.0 mi SSW 6.9 mph - N/A   Clear
3:55 AM 57.7 °F 41.5 °F 55% 30.10 in 10.0 mi SSW 5.8 mph - N/A   Clear
4:15 AM 56.8 °F 41.9 °F 57% 30.10 in 10.0 mi SSW 5.8 mph - N/A   Clear
4:35 AM 56.5 °F 42.4 °F 59% 30.10 in 10.0 mi SW 9.2 mph - N/A   Clear
4:55 AM 55.6 °F 42.6 °F 62% 30.10 in 10.0 mi SSW 5.8 mph - N/A   Clear
5:15 AM 55.8 °F 44.8 °F 67% 30.11 in 10.0 mi South 6.9 mph - N/A   Clear
5:35 AM 54.9 °F 44.2 °F 67% 30.12 in 10.0 mi NNE 3.5 mph - N/A   Clear
5:55 AM 57.6 °F 44.1 °F 61% 30.12 in 10.0 mi NE 5.8 mph - N/A   Clear
6:15 AM 59.7 °F 41.9 °F 52% 30.13 in 10.0 mi NNW 8.1 mph - N/A   Clear
6:35 AM 56.8 °F 40.6 °F 55% 30.15 in 10.0 mi North 3.5 mph - N/A   Clear
6:55 AM 58.3 °F 34.9 °F 41% 30.16 in 10.0 mi North 6.9 mph - N/A   Clear
7:15 AM 59.4 °F 27.5 °F 30% 30.18 in 10.0 mi NE 5.8 mph - N/A   Clear
7:35 AM 56.8 °F 30.9 °F 37% 30.19 in 10.0 mi East 3.5 mph - N/A   Clear
7:55 AM 53.2 °F 32.0 °F 44% 30.20 in 7.0 mi Calm Calm - N/A   Clear
8:15 AM 55.6 °F 23.0 °F 28% 30.20 in 10.0 mi North 8.1 mph - N/A   Clear
8:35 AM 57.2 °F 21.7 °F 25% 30.22 in 10.0 mi NE 8.1 mph - N/A   Clear
8:55 AM 57.9 °F 24.1 °F 27% 30.24 in 10.0 mi NNE 11.5 mph - N/A   Clear
9:15 AM 58.3 °F 27.9 °F 31% 30.24 in 10.0 mi NE 16.1 mph - N/A   Clear
9:35 AM 57.4 °F 31.1 °F 37% 30.26 in 10.0 mi NNE 15.0 mph - N/A   Clear
9:55 AM 57.4 °F 31.8 °F 38% 30.27 in 10.0 mi NNE 16.1 mph 20.7 mph N/A   Clear
10:15 AM 57.2 °F 32.0 °F 38% 30.28 in 10.0 mi NNE 15.0 mph 23.0 mph N/A   Clear
10:35 AM 57.4 °F 32.0 °F 38% 30.28 in 10.0 mi NNE 13.8 mph 18.4 mph N/A   Clear
10:55 AM 58.3 °F 32.0 °F 37% 30.28 in 10.0 mi NNE 11.5 mph 16.1 mph N/A   Clear
11:15 AM 58.6 °F 32.0 °F 37% 30.28 in 10.0 mi NE 10.4 mph - N/A   Clear
11:35 AM 59.4 °F 32.0 °F 36% 30.28 in 10.0 mi North 13.8 mph 18.4 mph N/A   Clear
11:55 AM 60.8 °F 32.0 °F 34% 30.28 in 10.0 mi NE 11.5 mph 17.3 mph N/A   Clear
12:15 PM 61.9 °F 32.2 °F 33% 30.28 in 10.0 mi NE 13.8 mph 18.4 mph N/A   Clear
12:35 PM 62.2 °F 32.5 °F 33% 30.27 in 10.0 mi ENE 12.7 mph 18.4 mph N/A   Clear
12:55 PM 63.3 °F 32.7 °F 32% 30.27 in 10.0 mi NE 8.1 mph - N/A   Clear
1:15 PM 64.6 °F 32.9 °F 31% 30.26 in 10.0 mi NE 9.2 mph - N/A   Clear
1:35 PM 65.3 °F 33.1 °F 30% 30.26 in 10.0 mi NE 10.4 mph 19.6 mph N/A   Clear
1:55 PM 66.4 °F 33.3 °F 29% 30.25 in 10.0 mi ENE 10.4 mph 16.1 mph N/A   Clear
2:15 PM 66.7 °F 33.4 °F 29% 30.24 in 10.0 mi ENE 10.4 mph 19.6 mph N/A   Clear
2:35 PM 67.1 °F 33.4 °F 29% 30.23 in 10.0 mi ENE 10.4 mph 18.4 mph N/A   Clear
2:55 PM 68.5 °F 33.1 °F 27% 30.22 in 10.0 mi NE 11.5 mph 19.6 mph N/A   Clear
3:15 PM 68.0 °F 32.5 °F 27% 30.21 in 10.0 mi ENE 10.4 mph 18.4 mph N/A   Clear
3:35 PM 68.7 °F 31.8 °F 25% 30.20 in 10.0 mi ENE 15.0 mph 18.4 mph N/A   Clear
3:55 PM 68.7 °F 31.3 °F 25% 30.20 in 10.0 mi ENE 13.8 mph 18.4 mph N/A   Clear
4:15 PM 68.9 °F 31.1 °F 25% 30.20 in 10.0 mi ENE 10.4 mph 19.6 mph N/A   Clear
4:35 PM 68.2 °F 30.2 °F 24% 30.20 in 10.0 mi ENE 11.5 mph 18.4 mph N/A   Clear
4:55 PM 68.0 °F 30.0 °F 24% 30.20 in 10.0 mi NE 12.7 mph - N/A   Clear
5:15 PM 68.4 °F 29.7 °F 24% 30.20 in 10.0 mi ENE 11.5 mph - N/A   Clear
5:35 PM 67.6 °F 29.3 °F 24% 30.20 in 10.0 mi ENE 12.7 mph 18.4 mph N/A   Clear
5:55 PM 67.5 °F 29.1 °F 24% 30.20 in 10.0 mi ENE 10.4 mph 16.1 mph N/A   Clear
6:15 PM 66.7 °F 28.6 °F 24% 30.21 in 10.0 mi ENE 9.2 mph - N/A   Clear
6:35 PM 65.8 °F 28.2 °F 24% 30.21 in 10.0 mi NE 5.8 mph 21.9 mph N/A   Clear
6:55 PM 65.3 °F 28.2 °F 25% 30.22 in 10.0 mi ENE 8.1 mph - N/A   Clear
7:15 PM 63.9 °F 27.9 °F 26% 30.23 in 10.0 mi NE 8.1 mph - N/A   Clear
7:35 PM 61.7 °F 28.0 °F 28% 30.23 in 10.0 mi ENE 5.8 mph - N/A   Clear
7:55 PM 61.0 °F 27.5 °F 28% 30.24 in 10.0 mi NE 6.9 mph - N/A   Clear
8:15 PM 59.9 °F 27.9 °F 30% 30.25 in 10.0 mi ENE 5.8 mph - N/A   Clear
8:35 PM 58.1 °F 27.9 °F 32% 30.26 in 10.0 mi East 5.8 mph - N/A   Clear
8:55 PM 56.5 °F 28.0 °F 34% 30.27 in 10.0 mi NE 4.6 mph - N/A   Clear
9:15 PM 54.3 °F 28.0 °F 36% 30.27 in 10.0 mi North 3.5 mph - N/A   Clear
9:35 PM 54.9 °F 27.9 °F 35% 30.27 in 10.0 mi Calm Calm - N/A   Clear
9:55 PM 51.1 °F 28.2 °F 41% 30.28 in 10.0 mi NW 3.5 mph - N/A   Clear
10:15 PM 52.2 °F 28.4 °F 40% 30.28 in 10.0 mi Calm Calm - N/A   Clear
10:35 PM 49.3 °F 28.2 °F 44% 30.30 in 10.0 mi Calm Calm - N/A   Scattered Clouds
10:55 PM 52.2 °F 28.2 °F 40% 30.30 in 10.0 mi Calm Calm - N/A   Mostly Cloudy
11:15 PM 52.2 °F 28.2 °F 40% 30.30 in 10.0 mi Calm Calm - N/A   Scattered Clouds
11:35 PM 52.7 °F 28.2 °F 39% 30.29 in 10.0 mi Calm Calm - N/A   Clear
11:55 PM 50.4 °F 28.2 °F 42% 30.29 in 10.0 mi Calm Calm - N/A   Clear